[[{"header":{"parameterUnit":"m.s-1","parameterCategory":2,"la1":30.2991,"la2":30.254,"lo1":-89.0895,"lo2":-89.0444,"dy":0.0017,"dx":0.0017,"nx":28,"ny":28,"refTime":"2023-08-02T03:00:00:Z","depth":"0","parameterNumber":2,"parameterNumberName":"U-component_of_CURRENTS"},"data":[0,0,0,0,0,0,0,0,0,0,0,0,0,0,0,0,0,0,0,0,0,0,0,0,0,0,0,0,0,0,0,0,0,0,0,0,0,0,0,0,0,0,0,0,0,0,0,0,0,0,0,0,0,0,0,0,0,0,-0.2687,-0.2689,0,-0.2763,-0.2763,-0.2764,-0.2781,-0.2781,-0.2781,-0.2781,-0.2864,-0.2866,-0.2868,0,0,0,0,0,0,0,0,0,0,0,0,0,-0.2381,-0.2387,-0.2687,-0.2689,-0.269,-0.2763,-0.2763,-0.2764,-0.2781,-0.2781,-0.2781,-0.2781,-0.2863,-0.2866,-0.2868,0,0,0,0,0,0,0,0,0,0,0,0,0,-0.2485,-0.2389,-0.2687,-0.2712,-0.2715,-0.2763,-0.2763,-0.2764,-0.2781,-0.2781,-0.2781,-0.2781,-0.2862,-0.2865,-0.2869,-0.2888,0,0,-0.2879,-0.288,0,0,0,0,0,0,0,0,-0.248,-0.2496,-0.2707,-0.271,-0.2714,-0.2768,-0.2686,-0.2808,-0.2781,-0.275,-0.2781,-0.2781,-0.2837,-0.2842,-0.2847,-0.2892,-0.2895,-0.2879,-0.2881,-0.2882,-0.2883,0,0,0,0,0,0,0,-0.2473,-0.2492,-0.2711,-0.2709,-0.2713,-0.2659,-0.2675,-0.2708,-0.2787,-0.2752,-0.2755,-0.2773,-0.2838,-0.2844,-0.2849,-0.2896,-0.2879,-0.2882,-0.2884,-0.2885,-0.2803,-0.2799,0,0,0,0,0,0,-0.2486,-0.2487,-0.2709,-0.2714,-0.2602,-0.2666,-0.2683,-0.2746,-0.2787,-0.2795,-0.2773,-0.2774,-0.2838,-0.2845,-0.2852,-0.2778,-0.2882,-0.2885,-0.2887,-0.2807,-0.2802,-0.2797,0,0,0,0,0,0,-0.248,-0.2507,-0.2706,-0.2603,-0.2625,-0.2673,-0.2742,-0.2747,-0.2756,-0.2804,-0.2811,-0.2777,-0.2839,-0.2848,-0.2829,-0.2786,-0.2887,-0.289,-0.2812,-0.2805,-0.2799,-0.2694,0,0,0,0,0,0,-0.2472,-0.2505,-0.2542,-0.2606,-0.2632,-0.2697,-0.2742,-0.2749,-0.277,-0.2771,-0.281,-0.2817,-0.2839,-0.2823,-0.2832,-0.2792,-0.2892,-0.2817,-0.2809,-0.2801,-0.2703,-0.2685,-0.267,0,0,0,0,0,-0.2461,-0.2507,-0.2545,-0.257,-0.2688,-0.2696,-0.2701,-0.2729,-0.277,-0.2744,-0.2759,-0.2816,-0.278,-0.2823,-0.2835,-0.2794,-0.2821,-0.2811,-0.2802,-0.271,-0.2688,-0.267,0,0,0,0,0,0,-0.2388,-0.2516,-0.2558,-0.2642,-0.2653,-0.27,-0.2698,-0.273,-0.2727,-0.2738,-0.2783,-0.2788,-0.2748,-0.2777,-0.2825,-0.2736,-0.2803,-0.2795,-0.2728,-0.2709,-0.2693,-0.2725,-0.2895,0,0,0,0,0,-0.2396,-0.2467,-0.2543,-0.2598,-0.2612,-0.2658,-0.267,-0.269,-0.2708,-0.2709,-0.2726,-0.2732,-0.2718,-0.272,-0.2711,-0.2689,-0.2686,-0.2657,-0.2641,-0.2627,-0.2653,-0.2614,-0.2598,-0.2767,-0.2767,-0.2767,0,0,-0.238,-0.2462,-0.25,-0.2585,-0.2609,-0.26,-0.2662,-0.2674,-0.2656,-0.272,-0.2684,-0.2684,-0.2695,-0.2642,-0.2627,-0.2666,-0.2551,-0.2615,-0.2604,-0.2639,-0.2603,-0.2587,-0.2573,-0.276,-0.2761,-0.2762,0,0,-0.2338,-0.2456,-0.247,-0.249,-0.2533,-0.2559,-0.2562,-0.2594,-0.2594,-0.2563,-0.2589,-0.2559,-0.2549,-0.2534,-0.2534,-0.2426,-0.2463,-0.2414,-0.2373,-0.2332,-0.232,-0.231,-0.2189,-0.2169,-0.241,-0.241,-0.241,0,-0.2291,-0.2362,-0.2456,-0.2456,-0.2469,-0.2538,-0.2511,-0.252,-0.2528,-0.2517,-0.2526,-0.2477,-0.2494,-0.2441,-0.2399,-0.2395,-0.236,-0.2456,-0.2316,-0.2306,-0.2298,-0.2178,-0.2157,-0.2404,-0.2405,-0.2405,-0.2406,0,-0.2233,-0.2293,-0.2295,-0.2338,-0.235,-0.2343,-0.2382,-0.2371,-0.2389,-0.2392,-0.2334,-0.233,-0.2316,-0.2287,-0.2326,-0.226,-0.2243,-0.2299,-0.2381,-0.2275,-0.2152,-0.2133,-0.2395,-0.2397,-0.2399,-0.2401,0,0,-0.2086,-0.2228,-0.2216,-0.2255,-0.2298,-0.2309,-0.2279,-0.2267,-0.2273,-0.2229,-0.2198,-0.2151,-0.2182,-0.2183,-0.2205,-0.2174,-0.2053,-0.2222,-0.2223,-0.2126,-0.1901,-0.1651,-0.1605,-0.21,-0.2098,-0.2097,-0.1807,0,-0.1982,-0.2001,-0.2081,-0.2077,-0.2097,-0.2167,-0.2147,-0.2155,-0.2162,-0.2144,-0.2124,-0.2088,-0.2134,-0.2124,-0.2108,-0.2082,-0.2013,-0.2123,-0.2,-0.1995,-0.1808,-0.1579,-0.139,-0.1098,-0.1788,-0.1785,-0.1783,0,-0.1852,-0.1911,-0.1896,-0.2026,-0.2033,-0.2028,-0.2056,-0.2062,-0.2061,-0.206,-0.2034,-0.203,-0.1963,-0.2034,-0.1912,-0.1985,-0.1947,-0.1911,-0.19,-0.1711,-0.171,-0.1332,-0.1038,-0.1171,-0.1754,-0.1756,-0.1758,0,-0.1699,-0.1779,-0.1784,-0.1812,-0.193,-0.1931,-0.1988,-0.2013,-0.1967,-0.2009,-0.1897,-0.1928,-0.1786,-0.1834,-0.1713,-0.1837,-0.1542,-0.1703,-0.1414,-0.1394,-0.1231,-0.1198,-0.1083,-0.1614,-0.1614,-0.1615,-0.1616,0,-0.1568,-0.1583,-0.1732,-0.1737,-0.1754,-0.1876,-0.1868,-0.1924,-0.1895,-0.1759,-0.1848,-0.1626,-0.1723,-0.1543,-0.1629,-0.136,-0.1447,-0.1341,-0.129,-0.1169,-0.1136,-0.125,-0.1394,-0.1604,-0.1607,-0.1609,-0.1611,0,-0.1406,-0.1493,-0.1524,-0.1646,-0.1687,-0.1704,-0.1753,-0.1718,-0.1711,-0.1514,-0.1462,-0.1284,-0.1032,-0.1053,-0.0994,-0.1059,-0.0959,-0.0883,-0.0673,-0.0603,-0.0545,-0.0688,-0.0521,-0.0501,-0.0576,-0.0567,-0.0561,0,-0.1343,-0.1335,-0.1429,-0.1432,-0.1488,-0.1547,-0.1544,-0.1615,-0.1521,-0.1218,-0.1034,-0.0694,-0.0431,-0.0197,-0.0217,-0.0215,-0.0472,-0.0099,-0.033,-0.0429,-0.0557,-0.0731,-0.0746,-0.0039,-0.0029,-0.002,-0.0013,0,-0.1212,-0.1218,-0.124,-0.1245,-0.125,-0.1251,-0.1244,-0.1119,-0.1076,-0.0857,-0.0446,-0.0208,0.0192,0.0389,0.0463,0.0404,-0.0135,0.0084,-0.0104,-0.0155,-0.0257,-0.0248,-0.0319,0.0064,0.0056,0.005,0.0046,0.0043,-0.1088,-0.1049,-0.1048,-0.1048,-0.1043,-0.093,-0.0857,-0.0766,-0.0554,-0.0229,-0.005,0.0246,0.0608,0.081,0.0758,0.0756,0.0557,0.0577,0.0417,0.0251,0.0258,0.0429,0.0903,0.09,0.0898,0.0896,0.0894,0,-0.0927,-0.0894,-0.0867,-0.0832,-0.0748,-0.0793,-0.0625,-0.0495,-0.022,-0.002,0.0237,0.0551,0.0912,0.1023,0.1231,0.1051,0.081,0.0869,0.0564,0.053,0.0651,0.0657,0.1204,0.1204,0.1204,0.1204,0.1204,0.1204,-0.0835,-0.0735,-0.0722,-0.0566,-0.0529,-0.0335,-0.0203,-0.0024,0.0105,0.0345,0.042,0.0465,0.0753,0.1129,0.1154,0.1054,0.0666,0.0718,0.0486,0.0425,0.0378,0.0332,0.0303,0.0767,0.0766,0.0433,0.0429,0.0427]},{"header":{"parameterUnit":"m.s-1","parameterCategory":2,"la1":30.2991,"la2":30.254,"lo1":-89.0895,"lo2":-89.0444,"dy":0.0017,"dx":0.0017,"nx":28,"ny":28,"refTime":"2023-08-02T03:00:00:Z","depth":"0","parameterNumber":3,"parameterNumberName":"V-component_of_CURRENTS"},"data":[0,0,0,0,0,0,0,0,0,0,0,0,0,0,0,0,0,0,0,0,0,0,0,0,0,0,0,0,0,0,0,0,0,0,0,0,0,0,0,0,0,0,0,0,0,0,0,0,0,0,0,0,0,0,0,0,0,0,-0.0266,-0.0264,0,-0.0049,-0.0047,-0.0044,0.0139,0.014,0.0142,0.0143,0.0582,0.0592,0.0602,0,0,0,0,0,0,0,0,0,0,0,0,0,-0.0424,-0.0422,-0.0266,-0.0263,-0.0261,-0.005,-0.0046,-0.0043,0.0138,0.014,0.0142,0.0144,0.0579,0.0591,0.0603,0,0,0,0,0,0,0,0,0,0,0,0,0,-0.0292,-0.0421,-0.0266,-0.0149,-0.0136,-0.0051,-0.0046,-0.0042,0.0138,0.014,0.0143,0.0145,0.0575,0.059,0.0605,0.0653,0,0,0.0652,0.0659,0,0,0,0,0,0,0,0,-0.03,-0.0286,-0.0168,-0.0157,-0.0143,0.0016,0.0059,0.02,0.0137,0.0039,0.0143,0.0146,0.0409,0.0438,0.0477,0.0674,0.0693,0.0653,0.0663,0.0669,0.0674,0,0,0,0,0,0,0,-0.0309,-0.0294,-0.0175,-0.0166,-0.0151,-0.0074,-0.0053,0.0086,0.0216,0.0048,0.006,0.0076,0.0418,0.0461,0.0489,0.0699,0.0653,0.0667,0.0676,0.0682,0.0984,0.0983,0,0,0,0,0,0,-0.0353,-0.0303,-0.0182,-0.0169,-0.0222,-0.0074,-0.005,-0.0034,0.021,0.0246,0.0074,0.0083,0.0434,0.0471,0.0506,0.0578,0.0669,0.0684,0.0692,0.0986,0.0984,0.0983,0,0,0,0,0,0,-0.0357,-0.0345,-0.0191,-0.0235,-0.021,-0.0075,-0.0057,-0.0031,0.0013,0.0226,0.0269,0.0089,0.0437,0.0484,0.0628,0.0597,0.069,0.0704,0.0987,0.0985,0.0983,0.0723,0,0,0,0,0,0,-0.0363,-0.0347,-0.0352,-0.0238,-0.021,-0.0157,-0.0059,-0.0028,0.0017,0.0032,0.0254,0.0297,0.0443,0.0604,0.0643,0.062,0.0716,0.0988,0.0986,0.0984,0.0733,0.0712,0.0695,0,0,0,0,0,-0.0369,-0.0386,-0.0353,-0.0339,-0.022,-0.0159,-0.0137,-0.0028,0.0014,0.0021,0.0177,0.029,0.0617,0.0616,0.0662,0.0642,0.099,0.0987,0.0984,0.0742,0.0717,0.0695,0,0,0,0,0,0,-0.0449,-0.0366,-0.0328,-0.0316,-0.0254,-0.013,-0.0117,-0.0053,0.0069,0.0091,0.0291,0.0345,0.046,0.0583,0.0576,0.0721,0.0816,0.0822,0.0615,0.0594,0.0575,0.0516,0.0729,0,0,0,0,0,-0.0477,-0.0469,-0.0379,-0.0371,-0.0352,-0.0245,-0.0208,-0.0141,-0.0023,0.0032,0.0183,0.0343,0.0482,0.0561,0.0709,0.0789,0.0878,0.0802,0.0783,0.0766,0.0749,0.0779,0.0759,0.0974,0.0974,0.0974,0,0,-0.0505,-0.0461,-0.0453,-0.0389,-0.0332,-0.0306,-0.0215,-0.0179,-0.0145,0.0063,0.0157,0.0293,0.0492,0.0588,0.0647,0.0688,0.0766,0.0762,0.0746,0.0739,0.0773,0.0752,0.0733,0.0972,0.0973,0.0973,0,0,-0.0559,-0.0526,-0.0535,-0.0497,-0.0435,-0.0369,-0.0373,-0.0267,-0.0212,-0.0112,0.0036,0.0132,0.0364,0.0465,0.0557,0.0517,0.0668,0.0571,0.0426,0.0452,0.0434,0.0418,0.0554,0.0552,0.0553,0.0552,0.0552,0,-0.0594,-0.059,-0.053,-0.0529,-0.0508,-0.0411,-0.0416,-0.035,-0.0207,-0.0173,-0.0107,0.0148,0.0298,0.0393,0.0377,0.0469,0.0547,0.0491,0.0421,0.0407,0.0396,0.0539,0.054,0.0539,0.0541,0.0542,0.0543,0,-0.0638,-0.0644,-0.0654,-0.0617,-0.0591,-0.0586,-0.0501,-0.0465,-0.0391,-0.0314,-0.0218,-0.0045,0.0105,0.0146,0.0262,0.0252,0.036,0.0391,0.0461,0.0357,0.0517,0.0523,0.0521,0.0525,0.0529,0.0532,0,0,-0.0681,-0.0687,-0.0686,-0.0694,-0.0643,-0.0619,-0.06,-0.0547,-0.0483,-0.0422,-0.034,-0.0226,-0.016,-0.0056,0.0066,0.0069,0.0067,0.0172,0.018,0.0277,0.0201,0.025,0.0265,0.0067,0.0065,0.0064,0.0363,0,-0.0729,-0.077,-0.0749,-0.0773,-0.0788,-0.0724,-0.0679,-0.0621,-0.0523,-0.0408,-0.0349,-0.0183,-0.0225,-0.0103,-0.0158,0.0074,0.0063,-0.0011,0.0315,0.0327,0.0354,0.0264,0.0361,0.063,0.037,0.0371,0.0372,0,-0.0754,-0.0788,-0.0839,-0.0837,-0.0831,-0.0822,-0.0736,-0.068,-0.0541,-0.0438,-0.0397,-0.0256,-0.0208,-0.0198,-0.0089,-0.0133,-0.0024,0.0095,0.011,0.0242,0.0383,0.0687,0.0653,0.0616,0.0383,0.0383,0.0382,0,-0.0787,-0.0836,-0.0887,-0.0889,-0.0865,-0.0872,-0.0838,-0.0712,-0.055,-0.043,-0.0207,-0.0261,-0.0043,-0.0103,0.0069,0.0016,0.0244,0.0231,0.036,0.0373,0.0565,0.0593,0.0501,0.0251,0.025,0.0249,0.0248,0,-0.0823,-0.0858,-0.0913,-0.0931,-0.0945,-0.0911,-0.0799,-0.0759,-0.0499,-0.0216,-0.0217,0.0094,-0.0004,0.0142,0.0108,0.0263,0.0255,0.0325,0.0414,0.0486,0.0503,0.0571,0.0549,0.0261,0.0258,0.0256,0.0254,0,-0.0828,-0.0867,-0.0922,-0.0955,-0.096,-0.0961,-0.0738,-0.0555,-0.035,0.0051,0.0148,0.0437,0.0603,0.0506,0.0595,0.0495,0.058,0.0596,0.0725,0.0816,0.0813,0.0776,0.0866,0.0937,0.0767,0.0769,0.0771,0,-0.0835,-0.0869,-0.0939,-0.0943,-0.0967,-0.0905,-0.0754,-0.0534,-0.0224,0.0343,0.0622,0.0901,0.1168,0.124,0.104,0.0918,0.0834,0.0969,0.0808,0.0797,0.0824,0.0783,0.0833,0.103,0.1034,0.1037,0.104,0,-0.0844,-0.0866,-0.0907,-0.0923,-0.0847,-0.0654,-0.0413,-0.013,0.0298,0.0694,0.133,0.1572,0.1699,0.1636,0.1373,0.1291,0.0973,0.1034,0.0977,0.095,0.0953,0.1075,0.0924,0.1069,0.1066,0.1064,0.1062,0.1061,-0.0827,-0.0851,-0.0877,-0.0877,-0.0737,-0.0382,-0.0115,0.0283,0.0798,0.1475,0.177,0.2196,0.2067,0.1744,0.1588,0.1327,0.1283,0.124,0.1198,0.1159,0.116,0.1083,0.1318,0.1316,0.1315,0.1314,0.1313,0,-0.0774,-0.079,-0.0802,-0.0687,-0.0416,-0.0359,0.0184,0.0581,0.1204,0.1688,0.2229,0.2521,0.2269,0.1978,0.1573,0.1453,0.1428,0.1399,0.1346,0.1391,0.1314,0.1247,0.1529,0.1529,0.1529,0.1529,0.1529,0.1529,-0.0739,-0.0723,-0.0729,-0.0388,-0.0228,0.0319,0.0675,0.1168,0.1593,0.2253,0.2599,0.2844,0.2597,0.1824,0.1432,0.1435,0.144,0.1451,0.1412,0.1303,0.1283,0.1263,0.1187,0.1451,0.1451,0.155,0.1551,0.1551]}],[{"header":{"parameterUnit":"m.s-1","parameterCategory":2,"la1":30.2991,"la2":30.254,"lo1":-89.0895,"lo2":-89.0444,"dy":0.0017,"dx":0.0017,"nx":28,"ny":28,"refTime":"2023-08-02T03:00:00:Z","depth":"2","parameterNumber":2,"parameterNumberName":"U-component_of_CURRENTS"},"data":[0,0,0,0,0,0,0,0,0,0,0,0,0,0,0,0,0,0,0,0,0,0,0,0,0,0,0,0,0,0,0,0,0,0,0,0,0,0,0,0,0,0,0,0,0,0,0,0,0,0,0,0,0,0,0,0,0,0,-0.1748,-0.1749,0,-0.1916,-0.1918,-0.192,-0.1997,-0.1996,-0.1995,-0.1995,-0.2062,-0.2065,-0.2067,0,0,0,0,0,0,0,0,0,0,0,0,0,-0.1679,-0.1679,-0.1748,-0.1749,-0.1751,-0.1915,-0.1918,-0.1921,-0.1997,-0.1996,-0.1995,-0.1995,-0.2062,-0.2064,-0.2067,0,0,0,0,0,0,0,0,0,0,0,0,0,-0.1768,-0.1679,-0.1747,-0.1805,-0.1812,-0.1915,-0.1918,-0.1922,-0.1997,-0.1996,-0.1995,-0.1994,-0.2061,-0.2064,-0.2068,-0.2108,0,0,-0.2079,-0.208,0,0,0,0,0,0,0,0,-0.1762,-0.1771,-0.1795,-0.1801,-0.1809,-0.193,-0.1919,-0.1977,-0.1997,-0.1932,-0.1995,-0.1994,-0.2006,-0.2014,-0.2056,-0.2111,-0.2114,-0.2079,-0.2081,-0.2083,-0.2084,0,0,0,0,0,0,0,-0.1756,-0.1765,-0.1819,-0.1797,-0.1805,-0.1886,-0.1897,-0.1932,-0.1974,-0.1937,-0.1942,-0.1954,-0.201,-0.2053,-0.2058,-0.2115,-0.2079,-0.2082,-0.2084,-0.2085,-0.2036,-0.2033,0,0,0,0,0,0,-0.1717,-0.1758,-0.1814,-0.1823,-0.1778,-0.1887,-0.1899,-0.1896,-0.1976,-0.1987,-0.1954,-0.1956,-0.2047,-0.2054,-0.206,-0.1987,-0.2082,-0.2086,-0.2088,-0.204,-0.2036,-0.2032,0,0,0,0,0,0,-0.1714,-0.172,-0.1807,-0.1792,-0.1808,-0.1887,-0.1885,-0.19,-0.1934,-0.1989,-0.1998,-0.197,-0.2047,-0.2055,-0.2009,-0.1994,-0.2087,-0.2091,-0.2044,-0.2038,-0.2034,-0.1919,0,0,0,0,0,0,-0.1712,-0.1717,-0.1712,-0.1788,-0.1807,-0.1818,-0.1885,-0.1903,-0.194,-0.1945,-0.2006,-0.2013,-0.2047,-0.2002,-0.2012,-0.2001,-0.2093,-0.2048,-0.2041,-0.2035,-0.1927,-0.191,-0.1896,0,0,0,0,0,-0.1708,-0.1699,-0.171,-0.1718,-0.1793,-0.1815,-0.1831,-0.1891,-0.1941,-0.1927,-0.1937,-0.201,-0.197,-0.2001,-0.2014,-0.2004,-0.2051,-0.2043,-0.2036,-0.1934,-0.1914,-0.1897,0,0,0,0,0,0,-0.1679,-0.1707,-0.1722,-0.1724,-0.1741,-0.1825,-0.1843,-0.1886,-0.1899,-0.1915,-0.1962,-0.1965,-0.191,-0.1962,-0.1997,-0.1962,-0.2026,-0.2021,-0.1945,-0.1926,-0.1911,-0.1952,-0.2096,0,0,0,0,0,-0.1663,-0.1656,-0.169,-0.169,-0.1699,-0.1773,-0.18,-0.1838,-0.1861,-0.1873,-0.1906,-0.1925,-0.1896,-0.1911,-0.1898,-0.1901,-0.1927,-0.1899,-0.1884,-0.1871,-0.1906,-0.1895,-0.1883,-0.2007,-0.2007,-0.2007,0,0,-0.1657,-0.167,-0.1669,-0.1681,-0.1721,-0.1727,-0.1787,-0.182,-0.1822,-0.1875,-0.1879,-0.1861,-0.1869,-0.1832,-0.1821,-0.1879,-0.183,-0.1861,-0.185,-0.1894,-0.1886,-0.1874,-0.1864,-0.2001,-0.2002,-0.2003,0,0,-0.1636,-0.1644,-0.163,-0.1636,-0.1669,-0.1704,-0.1701,-0.1763,-0.1779,-0.176,-0.1776,-0.1737,-0.1748,-0.1741,-0.1739,-0.164,-0.1721,-0.1645,-0.1646,-0.1631,-0.1623,-0.1616,-0.1566,-0.1555,-0.1674,-0.1673,-0.1673,0,-0.163,-0.1616,-0.1629,-0.162,-0.1636,-0.1682,-0.1684,-0.1698,-0.1731,-0.1743,-0.1731,-0.1712,-0.1705,-0.167,-0.1619,-0.1613,-0.1613,-0.1718,-0.1616,-0.161,-0.1605,-0.1556,-0.1546,-0.1667,-0.1668,-0.1668,-0.1669,0,-0.1597,-0.159,-0.1586,-0.1581,-0.1589,-0.1598,-0.1613,-0.1623,-0.1647,-0.167,-0.1627,-0.1593,-0.1603,-0.1568,-0.1564,-0.153,-0.1536,-0.1568,-0.1674,-0.1586,-0.1538,-0.153,-0.1658,-0.166,-0.1662,-0.1664,0,0,-0.1564,-0.1566,-0.1561,-0.1565,-0.1579,-0.1587,-0.1579,-0.1591,-0.1612,-0.1591,-0.1602,-0.1513,-0.1538,-0.1534,-0.1525,-0.1514,-0.1424,-0.1538,-0.154,-0.1508,-0.137,-0.1257,-0.1238,-0.145,-0.145,-0.1449,-0.1328,0,-0.1536,-0.1521,-0.1529,-0.1519,-0.1519,-0.1554,-0.1545,-0.1563,-0.1571,-0.1579,-0.1551,-0.1531,-0.1512,-0.151,-0.1487,-0.1447,-0.141,-0.1453,-0.1447,-0.1446,-0.1374,-0.1228,-0.12,-0.1081,-0.1321,-0.132,-0.1319,0,-0.1484,-0.149,-0.1483,-0.1509,-0.1515,-0.1511,-0.1546,-0.1545,-0.156,-0.1571,-0.1569,-0.1563,-0.1522,-0.1515,-0.1431,-0.1466,-0.1413,-0.1376,-0.1371,-0.1322,-0.132,-0.1219,-0.1059,-0.1306,-0.1307,-0.1308,-0.1309,0,-0.1441,-0.145,-0.1453,-0.1456,-0.1487,-0.1498,-0.1517,-0.1544,-0.1541,-0.1575,-0.1576,-0.156,-0.1524,-0.1484,-0.1383,-0.1424,-0.1275,-0.1328,-0.1167,-0.1158,-0.1164,-0.1156,-0.1262,-0.1263,-0.1263,-0.1263,-0.1264,0,-0.1394,-0.1388,-0.1434,-0.1429,-0.1434,-0.1477,-0.1477,-0.1511,-0.1533,-0.1522,-0.1569,-0.153,-0.1517,-0.1431,-0.1375,-0.121,-0.1262,-0.1138,-0.1115,-0.1109,-0.1098,-0.135,-0.1362,-0.1259,-0.126,-0.1261,-0.1261,0,-0.1317,-0.1351,-0.1347,-0.1393,-0.1401,-0.1402,-0.142,-0.1416,-0.1475,-0.1459,-0.1467,-0.1475,-0.1372,-0.1308,-0.121,-0.1159,-0.1049,-0.0977,-0.094,-0.0915,-0.0952,-0.0959,-0.082,-0.0814,-0.081,-0.0807,-0.0804,0,-0.1271,-0.1265,-0.1297,-0.1285,-0.1295,-0.1303,-0.1292,-0.1358,-0.1352,-0.1397,-0.1368,-0.1306,-0.1234,-0.1036,-0.0938,-0.0801,-0.0859,-0.0692,-0.0764,-0.0912,-0.0905,-0.0918,-0.0931,-0.0704,-0.0701,-0.0698,-0.0695,0,-0.1181,-0.1195,-0.1194,-0.1176,-0.1163,-0.1146,-0.1148,-0.114,-0.1216,-0.1224,-0.1198,-0.1165,-0.1012,-0.086,-0.0688,-0.0614,-0.0725,-0.0624,-0.0785,-0.0812,-0.0791,-0.0788,-0.0806,-0.0669,-0.0672,-0.0674,-0.0675,-0.0676,-0.1099,-0.1076,-0.1076,-0.1046,-0.1026,-0.0986,-0.0945,-0.0962,-0.0952,-0.0949,-0.099,-0.0905,-0.0894,-0.0591,-0.049,-0.0396,-0.0478,-0.0482,-0.0497,-0.0514,-0.0513,-0.0485,-0.0304,-0.0304,-0.0304,-0.0305,-0.0305,0,-0.0997,-0.0976,-0.0942,-0.0902,-0.0832,-0.0865,-0.0835,-0.0791,-0.0749,-0.071,-0.0684,-0.0602,-0.0497,-0.0433,-0.0279,-0.0245,-0.0302,-0.0204,-0.0326,-0.0351,-0.0374,-0.0373,-0.0122,-0.0121,-0.012,-0.012,0,0,-0.094,-0.0879,-0.0863,-0.0724,-0.0685,-0.0581,-0.0548,-0.0513,-0.0453,-0.038,-0.0322,-0.0356,-0.0386,-0.0242,-0.0225,-0.0133,-0.0215,-0.0093,-0.0246,-0.041,-0.0431,-0.0546,-0.0572,0,0,0,0,0]},{"header":{"parameterUnit":"m.s-1","parameterCategory":2,"la1":30.2991,"la2":30.254,"lo1":-89.0895,"lo2":-89.0444,"dy":0.0017,"dx":0.0017,"nx":28,"ny":28,"refTime":"2023-08-02T03:00:00:Z","depth":"2","parameterNumber":3,"parameterNumberName":"V-component_of_CURRENTS"},"data":[0,0,0,0,0,0,0,0,0,0,0,0,0,0,0,0,0,0,0,0,0,0,0,0,0,0,0,0,0,0,0,0,0,0,0,0,0,0,0,0,0,0,0,0,0,0,0,0,0,0,0,0,0,0,0,0,0,0,-0.0491,-0.049,0,-0.0415,-0.0414,-0.0413,-0.0362,-0.0362,-0.0362,-0.0362,-0.0284,-0.0282,-0.0281,0,0,0,0,0,0,0,0,0,0,0,0,0,-0.0505,-0.0505,-0.0491,-0.049,-0.0489,-0.0415,-0.0414,-0.0412,-0.0362,-0.0362,-0.0362,-0.0362,-0.0285,-0.0283,-0.028,0,0,0,0,0,0,0,0,0,0,0,0,0,-0.0469,-0.0505,-0.0491,-0.0457,-0.0453,-0.0415,-0.0414,-0.0412,-0.0362,-0.0362,-0.0362,-0.0362,-0.0286,-0.0283,-0.028,-0.0267,0,0,-0.0271,-0.027,0,0,0,0,0,0,0,0,-0.0471,-0.0468,-0.0462,-0.0459,-0.0455,-0.0399,-0.039,-0.0364,-0.0362,-0.0395,-0.0362,-0.0361,-0.0324,-0.0318,-0.0301,-0.0263,-0.026,-0.0271,-0.0269,-0.0268,-0.0267,0,0,0,0,0,0,0,-0.0474,-0.0471,-0.0459,-0.0462,-0.0457,-0.0415,-0.041,-0.0384,-0.036,-0.0392,-0.0388,-0.0383,-0.0322,-0.0304,-0.0299,-0.0259,-0.0271,-0.0269,-0.0267,-0.0266,-0.0175,-0.0175,0,0,0,0,0,0,-0.0492,-0.0474,-0.0461,-0.0457,-0.0465,-0.0416,-0.041,-0.0416,-0.036,-0.0352,-0.0383,-0.0381,-0.0309,-0.0303,-0.0296,-0.0245,-0.0268,-0.0265,-0.0264,-0.0176,-0.0175,-0.0174,0,0,0,0,0,0,-0.0493,-0.0492,-0.0464,-0.0464,-0.0458,-0.0417,-0.0423,-0.0414,-0.0402,-0.0354,-0.0346,-0.0381,-0.0309,-0.03,-0.0281,-0.0244,-0.0264,-0.0261,-0.0177,-0.0176,-0.0175,-0.0165,0,0,0,0,0,0,-0.0494,-0.0493,-0.0504,-0.0466,-0.0459,-0.0444,-0.0423,-0.0413,-0.04,-0.0396,-0.0349,-0.0341,-0.0308,-0.0285,-0.0278,-0.024,-0.0259,-0.0177,-0.0176,-0.0175,-0.0166,-0.0163,-0.0161,0,0,0,0,0,-0.0495,-0.0506,-0.0505,-0.0503,-0.0475,-0.0444,-0.0436,-0.0404,-0.0401,-0.0393,-0.0368,-0.0343,-0.0271,-0.0283,-0.0274,-0.0235,-0.0178,-0.0177,-0.0175,-0.0167,-0.0164,-0.0161,0,0,0,0,0,0,-0.0517,-0.0502,-0.0499,-0.0506,-0.0481,-0.0437,-0.0428,-0.0413,-0.0387,-0.0386,-0.0347,-0.0337,-0.0301,-0.028,-0.0295,-0.0206,-0.0215,-0.0212,-0.0212,-0.0208,-0.0206,-0.0213,-0.0257,0,0,0,0,0,-0.053,-0.0535,-0.051,-0.0516,-0.0507,-0.0473,-0.0459,-0.0438,-0.041,-0.0398,-0.0361,-0.0323,-0.0286,-0.0261,-0.0229,-0.019,-0.0176,-0.0156,-0.0153,-0.0152,-0.0152,-0.0119,-0.0114,-0.0169,-0.0169,-0.0169,0,0,-0.0542,-0.0533,-0.0537,-0.0521,-0.05,-0.0476,-0.0463,-0.0444,-0.0415,-0.0395,-0.0348,-0.0322,-0.0279,-0.0228,-0.0207,-0.0205,-0.0126,-0.015,-0.0148,-0.015,-0.0117,-0.0111,-0.0106,-0.0168,-0.0168,-0.0169,0,0,-0.0552,-0.0559,-0.056,-0.0539,-0.0514,-0.0487,-0.0488,-0.0445,-0.0419,-0.0382,-0.0353,-0.0315,-0.0257,-0.0207,-0.0179,-0.015,-0.0124,-0.0133,-0.0114,-0.0081,-0.0076,-0.0072,-0.0039,-0.0032,-0.0121,-0.0121,-0.0121,0,-0.0567,-0.0565,-0.0554,-0.0538,-0.0521,-0.0496,-0.0479,-0.0444,-0.0396,-0.0374,-0.0367,-0.0276,-0.0239,-0.0171,-0.0152,-0.0141,-0.0127,-0.0126,-0.0078,-0.0074,-0.0069,-0.0037,-0.0029,-0.012,-0.012,-0.012,-0.012,0,-0.0565,-0.0562,-0.0559,-0.0533,-0.0511,-0.0496,-0.045,-0.0423,-0.0394,-0.0354,-0.0295,-0.0245,-0.0193,-0.016,-0.0143,-0.0083,-0.0084,-0.0088,-0.0087,-0.0063,-0.003,-0.0022,-0.0119,-0.0119,-0.012,-0.012,0,0,-0.0606,-0.0568,-0.0567,-0.0556,-0.051,-0.0495,-0.0446,-0.0398,-0.038,-0.031,-0.0274,-0.0185,-0.0169,-0.0137,-0.0103,-0.0058,-0.0006,-0.0059,-0.0057,-0.0029,0.0064,0.0075,0.0085,-0.0007,-0.0006,-0.0005,0.0078,0,-0.061,-0.0594,-0.0562,-0.0537,-0.0528,-0.0483,-0.0446,-0.0397,-0.0356,-0.0314,-0.0239,-0.0199,-0.0155,-0.0143,-0.0085,-0.0033,0.0013,-0.0028,0.0039,0.0041,0.0046,0.0094,0.0036,0.0106,0.0085,0.0087,0.0088,0,-0.0618,-0.0608,-0.0595,-0.0555,-0.0547,-0.0524,-0.0482,-0.0442,-0.0371,-0.0343,-0.0279,-0.0235,-0.0143,-0.0134,-0.0003,-0.0035,0.0013,0.0058,0.0062,0.0073,0.0067,0.0078,0.0121,0.0101,0.01,0.0099,0.0098,0,-0.0667,-0.0628,-0.0626,-0.0611,-0.0562,-0.0548,-0.0518,-0.0458,-0.0437,-0.0373,-0.0357,-0.0248,-0.0189,-0.0113,0.0017,-0.001,0.0153,0.0122,0.0183,0.0184,0.0149,0.0145,0.0196,0.0196,0.0196,0.0196,0.0196,0,-0.0689,-0.0683,-0.0655,-0.0656,-0.065,-0.0599,-0.0586,-0.0547,-0.0503,-0.0466,-0.0385,-0.0324,-0.0183,-0.0062,0.0015,0.0152,0.0159,0.0198,0.0212,0.0152,0.0148,0.0148,0.0141,0.0199,0.0198,0.0198,0.0197,0,-0.0734,-0.0717,-0.0717,-0.0687,-0.0677,-0.0678,-0.0637,-0.0626,-0.0583,-0.0536,-0.052,-0.0367,-0.0199,-0.0049,0.011,0.0165,0.0271,0.0312,0.0243,0.0246,0.0269,0.0262,0.0354,0.0355,0.0356,0.0357,0.0358,0,-0.0749,-0.076,-0.0758,-0.076,-0.0746,-0.0735,-0.0721,-0.0679,-0.0661,-0.0544,-0.0519,-0.0344,-0.02,0.0052,0.0194,0.0338,0.0343,0.0339,0.0273,0.0285,0.0288,0.0279,0.0271,0.0234,0.0233,0.0233,0.0233,0,-0.0775,-0.079,-0.0794,-0.0807,-0.0805,-0.0794,-0.0768,-0.0769,-0.0693,-0.0644,-0.0502,-0.0383,-0.0117,0.0067,0.0258,0.0312,0.0305,0.0335,0.0386,0.0201,0.0178,0.0179,0.0174,0.023,0.0231,0.0231,0.0231,0.0231,-0.0794,-0.0813,-0.0827,-0.0836,-0.0838,-0.0828,-0.0813,-0.0762,-0.0719,-0.0586,-0.0485,-0.0268,-0.014,0.0161,0.0259,0.0351,0.0335,0.0304,0.0302,0.0301,0.027,0.025,0.0311,0.0312,0.0312,0.0313,0.0313,0,-0.0802,-0.0818,-0.0835,-0.0846,-0.0855,-0.0849,-0.0819,-0.0779,-0.0695,-0.0526,-0.0381,-0.0206,-0.0034,0.0138,0.028,0.0318,0.0287,0.0304,0.0248,0.0248,0.0249,0.0214,0.0241,0.0242,0.0243,0.0243,0,0,-0.0801,-0.0825,-0.0838,-0.0851,-0.0858,-0.0851,-0.0832,-0.0743,-0.0619,-0.0423,-0.0246,-0.0104,0.0041,0.0115,0.015,0.0231,0.0225,0.0216,0.0256,0.018,0.0182,0.0218,0.0161,0,0,0,0,0]}],[{"header":{"parameterUnit":"m.s-1","parameterCategory":2,"la1":30.2991,"la2":30.254,"lo1":-89.0895,"lo2":-89.0444,"dy":0.0017,"dx":0.0017,"nx":28,"ny":28,"refTime":"2023-08-02T03:00:00:Z","depth":"4","parameterNumber":2,"parameterNumberName":"U-component_of_CURRENTS"},"data":[0,0,0,0,0,0,0,0,0,0,0,0,0,0,0,0,0,0,0,0,0,0,0,0,0,0,0,0,0,0,0,0,0,0,0,0,0,0,0,0,0,0,0,0,0,0,0,0,0,0,0,0,0,0,0,0,0,0,-0.1078,-0.1078,0,-0.1061,-0.1061,-0.1061,-0.1087,-0.1088,-0.1089,-0.109,-0.1067,-0.1065,-0.1063,0,0,0,0,0,0,0,0,0,0,0,0,0,-0.11,-0.11,-0.1078,-0.1078,-0.1078,-0.1061,-0.1061,-0.106,-0.1087,-0.1088,-0.1089,-0.1091,-0.1067,-0.1065,-0.1063,0,0,0,0,0,0,0,0,0,0,0,0,0,-0.1086,-0.1099,-0.1078,-0.1091,-0.1092,-0.1061,-0.1061,-0.106,-0.1086,-0.1088,-0.109,-0.1091,-0.1068,-0.1065,-0.1063,-0.1014,0,0,-0.1055,-0.1054,0,0,0,0,0,0,0,0,-0.1086,-0.1084,-0.1089,-0.109,-0.1091,-0.108,-0.106,-0.1045,-0.1086,-0.1086,-0.109,-0.1092,-0.1071,-0.1068,-0.1058,-0.1013,-0.1012,-0.1055,-0.1054,-0.1052,-0.1052,0,0,0,0,0,0,0,-0.1087,-0.1085,-0.1069,-0.1089,-0.109,-0.1087,-0.1086,-0.1057,-0.1067,-0.1086,-0.1088,-0.109,-0.1071,-0.106,-0.1058,-0.1011,-0.1055,-0.1053,-0.1051,-0.105,-0.0985,-0.0985,0,0,0,0,0,0,-0.1094,-0.1086,-0.1069,-0.1069,-0.1095,-0.1085,-0.1085,-0.108,-0.1068,-0.1068,-0.1088,-0.1091,-0.1064,-0.1061,-0.1057,-0.1079,-0.1052,-0.105,-0.1049,-0.0985,-0.0985,-0.0985,0,0,0,0,0,0,-0.1094,-0.1092,-0.107,-0.1079,-0.1077,-0.1083,-0.1077,-0.1079,-0.1098,-0.107,-0.107,-0.1111,-0.1065,-0.106,-0.1047,-0.1076,-0.1049,-0.1047,-0.0986,-0.0985,-0.0985,-0.1071,0,0,0,0,0,0,-0.1095,-0.1092,-0.1097,-0.1079,-0.1077,-0.1067,-0.1076,-0.1077,-0.1096,-0.11,-0.1088,-0.1086,-0.1066,-0.105,-0.1044,-0.1072,-0.1045,-0.0986,-0.0985,-0.0985,-0.1069,-0.1074,-0.1079,0,0,0,0,0,-0.1095,-0.1091,-0.1097,-0.1096,-0.1081,-0.1067,-0.1065,-0.1074,-0.1096,-0.1099,-0.1092,-0.1088,-0.1044,-0.1048,-0.104,-0.1068,-0.0986,-0.0986,-0.0985,-0.1067,-0.1073,-0.1078,0,0,0,0,0,0,-0.1105,-0.1093,-0.1099,-0.1093,-0.109,-0.1073,-0.1078,-0.1088,-0.1084,-0.1097,-0.1078,-0.1074,-0.1076,-0.1047,-0.1053,-0.1044,-0.1016,-0.1014,-0.1081,-0.1087,-0.1091,-0.1094,-0.1043,0,0,0,0,0,-0.1108,-0.1103,-0.1094,-0.1092,-0.1092,-0.1092,-0.1093,-0.11,-0.1092,-0.1095,-0.1084,-0.107,-0.1059,-0.1056,-0.1032,-0.1021,-0.0988,-0.1033,-0.1038,-0.1043,-0.1037,-0.1014,-0.1017,-0.0983,-0.0983,-0.0983,0,0,-0.1115,-0.1106,-0.1106,-0.1094,-0.1093,-0.1097,-0.1097,-0.1103,-0.1116,-0.1089,-0.11,-0.1085,-0.1058,-0.1053,-0.1052,-0.1041,-0.1033,-0.1042,-0.1047,-0.1038,-0.1014,-0.1018,-0.1021,-0.0983,-0.0983,-0.0983,0,0,-0.1117,-0.1116,-0.1114,-0.1113,-0.1115,-0.1112,-0.1124,-0.1118,-0.1129,-0.1126,-0.112,-0.1119,-0.1092,-0.1084,-0.1077,-0.1087,-0.1059,-0.1086,-0.1118,-0.1098,-0.1101,-0.1103,-0.1065,-0.1063,-0.1091,-0.1092,-0.1092,0,-0.1132,-0.1123,-0.1113,-0.1114,-0.1122,-0.1127,-0.1139,-0.114,-0.1134,-0.114,-0.1141,-0.1121,-0.1108,-0.1112,-0.1121,-0.1103,-0.1075,-0.1108,-0.1107,-0.1108,-0.1109,-0.1069,-0.1066,-0.1096,-0.1095,-0.1095,-0.1094,0,-0.1128,-0.1133,-0.1133,-0.1139,-0.1145,-0.1152,-0.1159,-0.1169,-0.1186,-0.1186,-0.1195,-0.117,-0.1157,-0.1165,-0.1149,-0.1156,-0.1129,-0.1119,-0.1101,-0.1119,-0.1074,-0.107,-0.1102,-0.11,-0.1099,-0.1098,0,0,-0.1126,-0.1133,-0.1136,-0.1147,-0.1162,-0.1164,-0.119,-0.1204,-0.122,-0.1224,-0.1234,-0.1235,-0.1224,-0.1212,-0.12,-0.1192,-0.1184,-0.1165,-0.1162,-0.1141,-0.1124,-0.104,-0.1026,-0.1181,-0.118,-0.118,-0.1091,0,-0.1131,-0.1141,-0.1146,-0.117,-0.1176,-0.1197,-0.1217,-0.1234,-0.1242,-0.1244,-0.1247,-0.1241,-0.1242,-0.1237,-0.1234,-0.1188,-0.1175,-0.1208,-0.1096,-0.1092,-0.1028,-0.1019,-0.1179,-0.1087,-0.1086,-0.1085,-0.1085,0,-0.1116,-0.1128,-0.1152,-0.1182,-0.119,-0.1209,-0.1242,-0.1257,-0.1269,-0.1273,-0.1278,-0.1263,-0.1255,-0.1248,-0.1196,-0.1217,-0.1176,-0.1146,-0.1142,-0.1027,-0.0998,-0.1062,-0.1076,-0.1076,-0.1077,-0.1078,-0.1078,0,-0.1095,-0.1127,-0.1151,-0.1161,-0.1197,-0.1221,-0.1244,-0.1267,-0.1265,-0.128,-0.1268,-0.1268,-0.1241,-0.1212,-0.1153,-0.1172,-0.1079,-0.1092,-0.0979,-0.0972,-0.104,-0.1038,-0.1052,-0.1053,-0.1053,-0.1053,-0.1053,0,-0.1074,-0.1091,-0.1146,-0.1153,-0.1178,-0.1216,-0.1231,-0.1254,-0.1263,-0.1239,-0.1272,-0.1236,-0.123,-0.1177,-0.1141,-0.1029,-0.1064,-0.097,-0.0941,-0.1076,-0.108,-0.1036,-0.1036,-0.105,-0.105,-0.1051,-0.1052,0,-0.1024,-0.1065,-0.1087,-0.1145,-0.116,-0.1175,-0.1201,-0.1194,-0.1229,-0.1194,-0.1192,-0.1191,-0.1129,-0.1105,-0.1035,-0.0984,-0.0908,-0.0863,-0.0989,-0.0971,-0.082,-0.0824,-0.0726,-0.0722,-0.0719,-0.0716,-0.0714,0,-0.099,-0.1002,-0.1063,-0.1066,-0.1089,-0.1115,-0.1113,-0.1159,-0.1139,-0.1144,-0.1105,-0.1073,-0.1057,-0.0887,-0.0893,-0.081,-0.0803,-0.0752,-0.0811,-0.0803,-0.0785,-0.0795,-0.0804,-0.0709,-0.0708,-0.0707,-0.0706,0,-0.0923,-0.0961,-0.0978,-0.0988,-0.0996,-0.0991,-0.0998,-0.0977,-0.1008,-0.105,-0.0973,-0.0929,-0.0857,-0.0814,-0.075,-0.0701,-0.0782,-0.0719,-0.0726,-0.0781,-0.0781,-0.0769,-0.0782,-0.0695,-0.0697,-0.0698,-0.0698,0,-0.0869,-0.0865,-0.0894,-0.0886,-0.0889,-0.0853,-0.088,-0.0848,-0.0842,-0.0867,-0.0832,-0.0818,-0.0835,-0.0753,-0.0694,-0.0638,-0.0636,-0.0607,-0.062,-0.0632,-0.0645,-0.0634,-0.0463,0,0,0,0,0,-0.0807,-0.0787,-0.078,-0.0764,-0.0761,-0.0761,-0.0782,-0.0813,-0.0853,-0.0763,-0.0797,-0.0732,-0.0656,-0.0657,-0.0578,-0.0652,-0.0641,-0.0556,-0.0616,-0.0633,-0.0646,-0.0671,0,0,0,0,0,0,-0.0762,-0.076,-0.0748,-0.0654,-0.0617,-0.06,-0.0612,-0.0649,-0.0614,-0.0665,-0.0633,-0.0663,-0.061,-0.0677,-0.0553,-0.055,-0.0564,-0.0556,-0.0553,-0.0626,-0.0638,-0.0648,-0.0678,0,0,0,0,0]},{"header":{"parameterUnit":"m.s-1","parameterCategory":2,"la1":30.2991,"la2":30.254,"lo1":-89.0895,"lo2":-89.0444,"dy":0.0017,"dx":0.0017,"nx":28,"ny":28,"refTime":"2023-08-02T03:00:00:Z","depth":"4","parameterNumber":3,"parameterNumberName":"V-component_of_CURRENTS"},"data":[0,0,0,0,0,0,0,0,0,0,0,0,0,0,0,0,0,0,0,0,0,0,0,0,0,0,0,0,0,0,0,0,0,0,0,0,0,0,0,0,0,0,0,0,0,0,0,0,0,0,0,0,0,0,0,0,0,0,-0.0371,-0.0371,0,-0.0355,-0.0355,-0.0355,-0.0366,-0.0366,-0.0367,-0.0367,-0.0375,-0.0375,-0.0375,0,0,0,0,0,0,0,0,0,0,0,0,0,-0.0363,-0.0363,-0.0371,-0.0371,-0.037,-0.0355,-0.0355,-0.0355,-0.0366,-0.0366,-0.0367,-0.0368,-0.0375,-0.0375,-0.0375,0,0,0,0,0,0,0,0,0,0,0,0,0,-0.0359,-0.0363,-0.0371,-0.0374,-0.0374,-0.0355,-0.0355,-0.0355,-0.0366,-0.0366,-0.0367,-0.0368,-0.0375,-0.0375,-0.0375,-0.0357,0,0,-0.0373,-0.0373,0,0,0,0,0,0,0,0,-0.0359,-0.0359,-0.0374,-0.0374,-0.0374,-0.0363,-0.0355,-0.0357,-0.0366,-0.0369,-0.0367,-0.0368,-0.0373,-0.0373,-0.0368,-0.0358,-0.0358,-0.0373,-0.0373,-0.0373,-0.0373,0,0,0,0,0,0,0,-0.0359,-0.0359,-0.0365,-0.0374,-0.0374,-0.036,-0.0361,-0.0355,-0.0367,-0.0369,-0.037,-0.0367,-0.0373,-0.0368,-0.0368,-0.0358,-0.0373,-0.0373,-0.0373,-0.0373,-0.0324,-0.0323,0,0,0,0,0,0,-0.0363,-0.036,-0.0365,-0.0364,-0.0368,-0.036,-0.0361,-0.0366,-0.0367,-0.0368,-0.0367,-0.0368,-0.0368,-0.0369,-0.0368,-0.0327,-0.0373,-0.0373,-0.0372,-0.0325,-0.0324,-0.0323,0,0,0,0,0,0,-0.0363,-0.0364,-0.0366,-0.0361,-0.0361,-0.036,-0.0365,-0.0365,-0.037,-0.0365,-0.0367,-0.0373,-0.0369,-0.0369,-0.0358,-0.0328,-0.0373,-0.0372,-0.0327,-0.0325,-0.0323,-0.0258,0,0,0,0,0,0,-0.0363,-0.0364,-0.0375,-0.0362,-0.0361,-0.0357,-0.0364,-0.0364,-0.0367,-0.0369,-0.037,-0.0371,-0.037,-0.0358,-0.0357,-0.0329,-0.0372,-0.0328,-0.0326,-0.0324,-0.0261,-0.0254,-0.0248,0,0,0,0,0,-0.0363,-0.0371,-0.0376,-0.0376,-0.0374,-0.0356,-0.0355,-0.0356,-0.0367,-0.0364,-0.036,-0.0372,-0.0345,-0.0357,-0.0356,-0.0327,-0.0329,-0.0326,-0.0324,-0.0264,-0.0256,-0.0248,0,0,0,0,0,0,-0.0376,-0.0372,-0.0377,-0.0386,-0.0374,-0.0359,-0.036,-0.036,-0.0354,-0.0359,-0.0359,-0.0359,-0.0338,-0.0344,-0.0358,-0.0308,-0.0338,-0.0336,-0.0293,-0.0285,-0.0279,-0.0278,-0.0372,0,0,0,0,0,-0.0383,-0.0389,-0.0378,-0.0385,-0.038,-0.0372,-0.0369,-0.0366,-0.0356,-0.0356,-0.0352,-0.0345,-0.0325,-0.0317,-0.0309,-0.0282,-0.0289,-0.0264,-0.0257,-0.0251,-0.025,-0.0213,-0.0203,-0.0315,-0.0315,-0.0315,0,0,-0.0392,-0.0389,-0.0395,-0.0388,-0.0382,-0.0363,-0.0372,-0.0365,-0.0343,-0.0356,-0.0334,-0.0328,-0.0315,-0.0281,-0.0272,-0.0283,-0.0227,-0.0248,-0.0243,-0.0245,-0.021,-0.0199,-0.0189,-0.0313,-0.0314,-0.0314,0,0,-0.0397,-0.0408,-0.0408,-0.0394,-0.0381,-0.0368,-0.0367,-0.035,-0.0339,-0.0313,-0.031,-0.0282,-0.0268,-0.0236,-0.0221,-0.0175,-0.0197,-0.018,-0.0138,-0.0101,-0.0091,-0.0083,-0.0093,-0.0086,-0.017,-0.017,-0.017,0,-0.041,-0.0405,-0.0404,-0.0389,-0.0376,-0.0369,-0.0351,-0.033,-0.0309,-0.0287,-0.0302,-0.0245,-0.0238,-0.0172,-0.0154,-0.0157,-0.0163,-0.0166,-0.0091,-0.0083,-0.0075,-0.0088,-0.0081,-0.0167,-0.0167,-0.0168,-0.0168,0,-0.0401,-0.0398,-0.0394,-0.0372,-0.0356,-0.0342,-0.0308,-0.0288,-0.0276,-0.0248,-0.0196,-0.0173,-0.014,-0.0123,-0.0124,-0.0058,-0.0091,-0.0091,-0.011,-0.006,-0.0077,-0.0071,-0.0162,-0.0163,-0.0164,-0.0165,0,0,-0.0433,-0.0396,-0.0398,-0.0386,-0.0346,-0.0335,-0.0285,-0.0237,-0.0218,-0.0169,-0.0134,-0.0065,-0.006,-0.0043,-0.0032,0.0009,0.0055,-0.0019,-0.0019,-0.0028,0.0098,0.0052,0.0053,0.0068,0.007,0.0072,0.0059,0,-0.0429,-0.0407,-0.038,-0.0353,-0.0339,-0.0302,-0.0264,-0.0216,-0.0183,-0.0149,-0.0082,-0.0058,-0.0025,-0.0027,0.0034,0.0034,0.0076,0.0055,0.0049,0.0048,0.0004,0.0062,0.0078,0.0063,0.0064,0.0065,0.0066,0,-0.0431,-0.0415,-0.0394,-0.0352,-0.0343,-0.0324,-0.0276,-0.0238,-0.0167,-0.0144,-0.0075,-0.0051,0.0025,0.0023,0.0109,0.0089,0.0103,0.0113,0.0113,0.0052,0.0014,0.0006,0.0077,0.0076,0.0075,0.0074,0.0074,0,-0.0468,-0.0426,-0.0415,-0.04,-0.035,-0.0334,-0.0306,-0.0243,-0.0226,-0.0157,-0.0161,-0.0044,-0.0042,0.0043,0.0079,0.0088,0.014,0.0153,0.0133,0.0128,0.0142,0.0133,0.0221,0.0221,0.0221,0.0221,0.0221,0,-0.0476,-0.0469,-0.0441,-0.0438,-0.0431,-0.0378,-0.0368,-0.0323,-0.0282,-0.0264,-0.0178,-0.0164,-0.0041,0.0005,0.0072,0.0112,0.0143,0.0147,0.0137,0.0165,0.0159,0.0144,0.0136,0.022,0.0221,0.0221,0.0221,0,-0.0515,-0.0494,-0.0492,-0.0459,-0.0454,-0.0456,-0.0434,-0.0422,-0.0385,-0.0368,-0.0357,-0.0273,-0.0202,-0.0094,0.0002,0.0058,0.0123,0.0127,0.0115,0.0102,0.0086,0.008,0.0117,0.0116,0.0115,0.0114,0.0113,0,-0.0524,-0.053,-0.0535,-0.0544,-0.0536,-0.0533,-0.0529,-0.0484,-0.0471,-0.0431,-0.0427,-0.0374,-0.03,-0.0189,-0.008,0.0048,0.0068,0.0084,0.014,0.0096,0.0083,0.0079,0.0076,0.0111,0.0111,0.011,0.011,0,-0.0546,-0.0567,-0.0571,-0.0599,-0.0612,-0.0612,-0.0601,-0.0603,-0.0542,-0.0535,-0.047,-0.0393,-0.0332,-0.0202,-0.0125,-0.0025,0.0077,0.0072,0.0077,0.0129,0.0089,0.0076,0.0074,0.0106,0.0107,0.0107,0.0107,0,-0.0574,-0.0594,-0.0617,-0.0636,-0.0661,-0.066,-0.0651,-0.0612,-0.0594,-0.0527,-0.0518,-0.0418,-0.0359,-0.0246,-0.0164,-0.0079,-0.0042,-0.0004,0.0005,0.001,-0.0007,-0.0073,-0.0105,0,0,0,0,0,-0.0587,-0.0609,-0.0637,-0.0657,-0.0686,-0.0693,-0.0676,-0.0655,-0.0616,-0.0567,-0.0528,-0.0448,-0.0322,-0.0276,-0.0193,-0.0197,-0.0046,-0.0102,-0.0001,0.0083,0.0088,0.0084,0,0,0,0,0,0,-0.0594,-0.063,-0.064,-0.067,-0.0688,-0.0706,-0.0695,-0.0665,-0.0617,-0.0571,-0.0494,-0.0455,-0.0326,-0.0369,-0.0202,-0.0181,-0.0111,-0.0042,-0.0041,0.008,0.0085,0.0089,0.0086,0,0,0,0,0]}]]